Printer-friendly version

IAU Minor Planet Center

Minor Planet Center

MPEC 2007-V86 : 2007 VE138

The following Minor Planet Electronic Circular may be linked-to from your own Web pages, but must not otherwise be redistributed electronically.


Read MPEC 2007-V85 Read MPEC 2007-V87


M.P.E.C. 2007-V86                                Issued 2007 Nov. 13, 00:48 UT

     The Minor Planet Electronic Circulars contain information on unusual
         minor planets and routine data on comets.  They are published
   on behalf of Commission 20 of the International Astronomical Union by the
          Minor Planet Center, Smithsonian Astrophysical Observatory,
                          Cambridge, MA 02138, U.S.A.

             Prepared using the Tamkin Foundation Computer Network

                              MPC@CFA.HARVARD.EDU
          URL http://www.cfa.harvard.edu/iau/mpc.html  ISSN 1523-6714

                                  2007 VE138

Observations:
     K07VD8E* C2007 11 11.31201 03 42 30.09 -07 43 14.3          19.4 V EV086703
     K07VD8E  C2007 11 11.32139 03 42 25.09 -07 40 12.8          18.9 V EV086703
     K07VD8E  C2007 11 11.32961 03 42 20.70 -07 37 32.9          18.3 V EV086703
     K07VD8E  C2007 11 11.36960 03 41 59.13 -07 24 18.4          19.2 V EV086703
     K07VD8E  C2007 11 11.37104 03 41 58.41 -07 23 46.8          19.6 V EV086703
     K07VD8E 5C2007 11 11.37148 03 42 00.57 -07 23 50.9          18.8 R EV086673
     K07VD8E  C2007 11 11.37251 03 41 57.55 -07 23 19.3          18.8 V EV086703
     K07VD8E 5C2007 11 11.37660 03 41 57.78 -07 22 06.9                 EV086673
     K07VD8E 5C2007 11 11.38162 03 41 55.05 -07 20 25.1                 EV086673
     K07VD8E 5C2007 11 11.38546 03 41 53.00 -07 19 07.8                 EV086673
     K07VD8E  C2007 11 11.39429 03 41 44.88 -07 16 02.3          18.0 R EV086H01
     K07VD8E  C2007 11 11.39461 03 41 44.70 -07 15 55.6          18.2 R EV086H01
     K07VD8E  C2007 11 11.40639 03 41 38.39 -07 11 53.4          18.0 R EV086H01
     K07VD8E  C2007 11 11.41740 03 41 32.50 -07 08 04.5          18.3 R EV086H01
     K07VD8E  C2007 11 11.41848 03 41 31.88 -07 07 41.4          18.0 R EV086H01
     K07VD8E  C2007 11 11.41988 03 41 31.13 -07 07 12.1          18.0 R EV086H01
     K07VD8E  C2007 11 11.42638 03 41 28.25 -07 04 47.0          19.3 R EV086651
     K07VD8E  C2007 11 11.42741 03 41 27.69 -07 04 24.5          19.5 R EV086651
     K07VD8E  C2007 11 11.42772 03 41 27.70 -07 04 21.9          18.8 V EV086703
     K07VD8E  C2007 11 11.42860 03 41 27.16 -07 04 02.7          19.1 V EV086703
     K07VD8E  C2007 11 11.42949 03 41 26.66 -07 03 43.6          19.0 V EV086703
     K07VD8E  C2007 11 11.43038 03 41 26.19 -07 03 26.0          18.9 V EV086703
     K07VD8E  C2007 11 11.93355 03 37 24.16 -03 35 06.4                 EV086J95
     K07VD8E  C2007 11 11.93557 03 37 22.69 -03 34 05.9                 EV086J95
     K07VD8E  C2007 11 11.93763 03 37 21.22 -03 33 04.5          18.2 R EV086J95
     K07VD8E  C2007 11 12.24838 03 33 42.71 -00 35 00.2          18.4   EV086704
     K07VD8E  C2007 11 12.26056 03 33 31.02 -00 27 07.0          18.7   EV086704
     K07VD8E  C2007 11 12.27285 03 33 19.05 -00 19 04.5          19.1   EV086704
     K07VD8E  C2007 11 12.28504 03 33 07.06 -00 11 00.1          19.1   EV086704
     K07VD8E  C2007 11 12.29726 03 32 54.86 -00 02 50.7          18.6   EV086704
     K07VD8E  C2007 11 12.30973 03 32 44.23 +00 05 44.6          17.4 V EV086703
     K07VD8E  C2007 11 12.31020 03 32 43.76 +00 06 04.0          17.6 V EV086703
     K07VD8E  C2007 11 12.31068 03 32 43.29 +00 06 23.5          17.6 V EV086703
     K07VD8E  C2007 11 12.31115 03 32 42.79 +00 06 42.9          17.6 V EV086703
     K07VD8E  C2007 11 12.85352 03 23 02.83 +08 03 52.3          17.1 R EV086473
     K07VD8E  C2007 11 12.85513 03 23 00.29 +08 05 42.8          17.3 R EV086473
     K07VD8E  C2007 11 12.85593 03 22 59.03 +08 06 38.0          17.5 R EV086473
     K07VD8E  C2007 11 12.97816 03 19 27.30 +10 35 40.8          17.7 V EV086595
     K07VD8E  C2007 11 12.98214 03 19 19.76 +10 40 50.2                 EV086595
     K07VD8E  C2007 11 12.98692 03 19 10.75 +10 47 04.7                 EV086595

Observer details:
473 Remanzacco.  Observers L. Donato, M. Gonano, V. Gonano, E. Guido,
    V. Santini, G. Sostero.  0.45-m f/4.4 Newtonian reflector + CCD.
595 Farra d'Isonzo.  Observers L. Bittesini, G. Lombardi, E. Pettarin,
    F. Piani.  Measurer E. Pettarin.  0.30-m f/4.5 reflector + CCD.
651 Grasslands Observatory, Tucson.  Observer J. E. McGaha.  0.62-m f/5.1
    Newtonian reflector + CCD.
673 Table Mountain Observatory, Wrightwood.  Observer J. Young.  0.61-m f/16
    Cassegrain + CCD.
703 Catalina Sky Survey.  Observer A. R. Gibbs.  Measurers E. C. Beshore,
    A. Boattini, G. J. Garradd, A. R. Gibbs, A. D. Grauer, R. E. Hill,
    R. A. Kowalski, S. M. Larson, R. H. McNaught.  0.68-m Schmidt + CCD.
704 Lincoln Laboratory ETS, New Mexico.  Observers M. Bezpalko, D. Torres,
    R. Kracke, G. Spitz, J. Kistler.  Measurers J. Stuart, S. Scruggs.  1.0-m
    f/2.15 reflector + CCD.
H01 Magdalena Ridge Observatory, Socorro.  Observer W. H. Ryan.  2.4-m f/8.9
    reflector + CCD.
J95 Great Shefford.  Observer P. Birtwhistle.  0.40-m f/6.0 Schmidt-Cassegrain
    + CCD.

Orbital elements:
2007 VE138                                               Earth MOID = 0.0079 AU
Epoch 2007 Oct. 27.0 TT = JDT 2454400.5                 MPC
M 316.77060              (2000.0)            P               Q
n   0.62367832     Peri.   73.35228     -0.51334431     -0.81921121
a   1.3567368      Node    50.37149     +0.60478604     -0.55671307
e   0.4172130      Incl.   19.38798     +0.60886079     -0.13770820
P   1.58           H   25.7           G   0.15           U   7
Residuals in seconds of arc
071111 703  0.2+  0.8+    071111 H01  0.0   0.2+    071112 704  0.4-  0.6+
071111 703  0.3-  0.3+    071111 H01  0.0   0.2+    071112 704  0.6-  0.2-
071111 703  0.5-  0.3-    071111 651  0.3+  0.5-    071112 703  0.3-  0.4-
071111 703  0.9-  0.3-    071111 651  0.3+  0.4+    071112 703  0.2-  0.2-
071111 703 (0.0   2.2+)   071111 703  0.8+  0.1+    071112 703  0.1+  0.3-
071111 673  0.5+  0.8-    071111 703  0.1-  0.8+    071112 703  0.2-  0.1-
071111 703  0.9-  0.1+    071111 703  0.4-  1.2+    071112 473  0.3+  0.3-
071111 673  0.4+  0.2-    071111 703  0.2-  0.1+    071112 473  0.3+  0.3-
071111 673  0.4+  0.1-    071111 J95  0.3+  0.1-    071112 473  0.4+  0.0
071111 673  1.0+  0.8-    071111 J95  0.1-  0.1+    071112 595  0.8+  0.6+
071111 H01  0.0   0.1-    071111 J95  0.0   0.1-    071112 595  0.3-  0.2-
071111 H01  0.1-  0.1+    071112 704  0.3-  0.3+    071112 595  0.4-  0.1+
071111 H01  0.3+  0.5-    071112 704  0.4-  0.2+
071111 H01  0.6+  0.4-    071112 704  0.7-  0.0

Ephemeris:
2007 VE138               a,e,i = 1.36, 0.42, 19                  q = 0.7907
Date    TT    R. A. (2000) Decl.     Delta      r     Elong.  Phase     V
2007 11 06    03 55.90   -17 59.1    0.0720   1.049   141.7    35.8    21.6
2007 11 07    03 54.90   -17 13.5    0.0633   1.042   142.7    35.2    21.2
2007 11 08    03 53.54   -16 11.9    0.0546   1.036   143.9    34.3    20.9
2007 11 09    03 51.63   -14 45.5    0.0459   1.029   145.6    33.0    20.5
2007 11 10    03 48.83   -12 37.4    0.0373   1.022   147.9    31.0    19.9
2007 11 11    03 44.42   -09 11.6    0.0289   1.016   151.6    27.6    19.3
2007 11 12    03 36.56   -02 55.8    0.0206   1.009   158.3    21.3    18.3
2007 11 13    03 18.93   +11 09.8    0.0130   1.003   173.1     6.8    16.8
2007 11 14    02 07.87   +49 32.2    0.00799  0.996   145.7    34.0    16.6
2007 11 15    18 30.60   +66 09.4    0.0105   0.990    91.7    87.7    18.9
2007 11 16    16 54.87   +48 32.3    0.0176   0.983    70.2   108.9    21.0

Gareth V. Williams           (C) Copyright 2007 MPC           M.P.E.C. 2007-V86

Read MPEC 2007-V85 Read MPEC 2007-V87


Our Web policy. Index to the CBAT/MPC/ICQ pages.


Valid HTML 4.01!